RH
99 103 100 102 99 88 84 89 98 106 107 108 105 101 103 101 100 103 99 99 100 98 98 100 101 100 100 101 102 100 101 101 98 99 105 102 90 90 96 99 100 95 87 77 68 61 55 50 44 38 33 29 27 26 26 28 30 34 36 37 37 36 33 31 34 34 29 27 30 32 33 31 29 28 27 28 28 22 19 18 16 16 15 15 18 16 14 15 18 18 18 17 16 18 20 23 28
100 101 100 101 100 94 89 90 99 108 107 107 105 102 104 101 101 101 95 101 103 99 101 100 101 101 101 102 100 100 100 99 101 102 100 100 100 101 101 101 104 101 87 74 65 57 52 46 40 35 32 29 29 29 30 32 34 34 34 37 40 39 36 32 33 35 32 31 33 34 34 31 29 30 29 29 28 23 20 19 17 17 17 15 16 14 13 14 16 18 19 20 20 22 22 25 32
100 100 101 101 101 100 99 95 96 105 107 104 104 103 101 97 98 95 86 95 99 95 101 103 102 103 105 103 97 97 92 93 105 102 95 99 102 102 101 100 103 100 82 66 58 51 46 41 36 33 31 30 30 31 34 36 37 36 35 36 39 40 37 33 32 36 35 33 35 35 35 32 30 33 32 30 28 23 21 21 19 19 18 17 17 14 13 14 15 16 18 19 20 22 24 28 33
99 98 98 98 100 99 99 100 98 101 106 103 102 104 101 89 84 86 81 88 99 97 96 97 97 97 103 104 101 100 84 81 97 100 100 104 103 101 101 100 102 100 79 60 53 47 42 37 33 32 30 29 29 30 32 34 35 35 36 35 38 39 37 34 31 36 38 34 36 36 35 32 31 35 34 33 31 27 26 24 22 22 21 19 18 17 16 15 15 15 15 17 18 20 23 28 32
99 98 93 90 92 87 83 91 99 101 104 103 99 102 99 85 80 81 78 93 107 98 85 83 84 88 100 106 105 98 76 68 78 93 103 102 102 102 100 101 103 99 77 58 51 45 40 36 32 31 28 27 26 26 27 30 32 32 33 34 35 35 37 34 30 37 39 35 36 36 35 33 33 37 37 36 36 33 32 27 25 26 26 24 22 21 20 18 17 16 16 16 17 17 19 23 27
99 100 96 92 86 77 70 76 95 104 105 103 98 102 96 84 83 76 70 92 105 96 90 82 78 89 102 106 102 88 72 69 67 81 100 100 100 103 101 102 103 96 76 59 51 46 40 37 33 30 28 26 24 23 26 29 30 31 32 33 33 33 35 32 30 38 40 37 36 35 35 35 36 40 43 41 38 37 34 29 29 31 30 29 27 25 23 22 20 19 18 18 18 18 18 19 20
100 99 99 97 94 89 77 67 83 101 104 103 99 102 93 80 86 87 74 84 102 98 95 87 78 86 100 106 101 88 78 73 67 78 102 107 103 102 102 102 101 90 75 62 53 47 41 37 33 31 28 26 25 25 29 32 33 34 32 32 33 33 34 30 31 40 42 38 37 36 34 37 41 47 50 46 40 36 34 32 34 36 34 32 31 30 27 26 25 22 21 20 20 20 20 20 19
101 102 100 98 100 102 89 71 84 99 103 104 101 98 87 75 78 88 73 78 103 101 98 99 87 85 98 108 105 96 85 76 80 94 104 104 102 101 102 102 98 83 69 61 53 47 42 37 33 31 29 26 27 30 34 36 38 38 34 32 33 35 36 33 34 42 44 40 38 35 34 41 49 55 56 51 45 40 38 39 40 39 37 37 36 35 33 29 28 26 25 23 22 23 24 24 22
103 104 102 99 99 103 99 91 99 104 103 104 103 92 78 68 64 77 80 87 105 101 95 91 85 85 97 108 106 100 94 90 95 102 103 104 103 101 101 99 94 81 67 60 54 48 41 37 34 31 29 28 30 34 40 40 41 43 38 33 32 37 40 38 39 45 45 40 39 34 34 44 54 58 58 54 51 46 44 45 44 44 43 43 43 42 40 35 30 29 28 26 24 26 27 28 28
102 102 103 99 93 100 103 100 103 102 102 104 104 94 79 70 65 79 90 89 95 96 86 79 89 93 97 108 106 100 99 101 100 102 103 104 105 103 103 97 91 85 70 60 55 48 41 37 34 33 31 33 37 39 43 43 44 47 41 36 34 38 44 44 44 48 45 41 40 37 35 44 55 61 61 58 53 49 48 48 48 47 46 47 48 48 47 44 36 31 30 29 27 28 30 32 32
99 100 105 95 89 101 103 101 101 99 102 104 103 96 89 78 67 75 78 80 94 105 93 78 87 90 95 108 104 95 95 98 99 105 105 104 106 100 98 95 90 87 71 56 51 45 39 37 35 34 35 37 41 42 43 43 46 50 45 39 37 40 48 49 50 52 47 42 41 40 38 42 52 60 63 59 53 51 49 48 47 45 43 44 47 51 53 52 47 37 32 32 31 30 33 34 36
99 99 103 96 96 105 101 99 100 100 101 103 103 96 98 93 83 89 88 92 104 109 95 71 75 90 99 106 105 92 82 91 94 94 96 101 105 93 91 96 97 94 78 55 45 43 37 36 36 34 36 37 40 42 43 44 45 50 48 43 40 43 50 52 55 55 50 45 43 43 41 42 45 51 54 52 49 47 46 44 42 40 40 41 46 53 55 54 56 51 40 36 35 34 34 36 38
102 99 101 99 102 106 101 101 100 103 104 100 101 98 103 100 93 105 107 106 104 102 91 70 78 99 101 97 105 94 66 72 83 84 91 94 95 91 91 96 100 102 93 66 41 38 36 35 36 33 34 34 37 40 42 43 44 50 51 47 43 44 51 55 57 57 52 48 47 47 45 44 44 45 46 44 42 41 41 39 38 39 42 49 54 54 51 48 54 61 57 50 45 40 38 39 40
103 104 104 100 102 104 101 105 102 106 108 98 99 104 104 100 100 105 106 103 87 82 79 69 79 92 94 88 95 103 82 72 77 82 95 95 91 93 96 98 103 106 105 82 46 34 33 36 35 32 32 30 33 39 41 42 44 49 52 51 47 45 50 55 58 57 54 50 51 53 50 46 44 43 42 40 38 39 38 35 39 42 49 65 66 55 50 49 51 58 65 66 61 56 50 46 45
102 107 108 100 100 103 100 105 106 105 105 98 102 106 93 91 95 88 101 106 72 61 71 77 87 85 91 96 92 101 99 84 72 72 82 83 87 98 101 101 103 106 107 88 55 37 35 39 37 31 31 29 30 35 39 42 46 49 52 54 50 48 50 55 59 58 56 54 54 55 53 49 46 43 40 39 39 39 37 39 44 47 64 88 78 53 48 53 54 55 60 67 73 74 71 64 58
101 107 110 98 91 99 102 101 104 102 101 99 103 104 89 86 80 67 87 95 66 58 71 81 90 88 94 107 100 91 92 81 66 64 63 66 84 102 102 99 103 106 105 91 68 50 44 45 40 33 33 31 27 31 37 42 48 50 52 54 52 51 51 55 59 60 59 58 57 56 54 52 50 45 40 41 42 41 40 43 47 49 67 84 67 45 44 51 55 55 52 55 62 70 77 79 75
103 107 105 92 80 90 103 102 104 102 102 104 103 101 97 99 82 64 70 70 71 74 73 84 93 96 101 106 103 95 95 84 67 60 61 77 95 101 100 99 102 105 104 97 81 65 55 50 41 32 34 36 28 28 36 43 49 50 51 52 53 53 51 55 58 61 62 62 61 58 56 55 53 48 43 43 43 44 44 47 54 56 59 60 53 49 53 54 54 55 50 47 49 57 70 73 72
107 103 91 90 86 90 102 105 105 100 103 104 102 102 100 106 83 59 62 63 78 84 75 86 91 96 102 103 107 98 90 78 65 64 72 93 102 100 101 100 103 105 104 98 87 79 67 51 39 31 32 38 31 27 33 43 50 50 50 51 53 52 51 55 59 63 65 64 63 60 59 57 54 51 45 45 47 48 48 53 61 60 57 57 56 56 58 57 57 59 57 61 62 60 65 59 51
104 96 87 94 96 100 106 107 105 99 102 101 101 106 102 107 82 47 58 66 72 82 82 84 84 94 100 102 108 95 87 80 71 77 87 93 98 105 100 94 104 106 100 90 83 82 68 50 39 31 32 37 33 28 33 44 52 52 50 51 52 52 51 54 60 65 67 65 64 62 61 58 56 53 48 48 49 52 51 56 61 58 62 64 58 58 65 67 65 66 70 82 78 63 66 57 44
99 90 92 98 100 106 108 107 108 101 104 104 100 107 104 105 85 45 49 65 72 85 90 85 82 93 94 93 101 91 85 82 69 76 95 101 101 108 100 93 103 103 94 81 74 72 59 47 40 34 34 38 33 30 36 44 51 53 51 51 52 52 50 52 58 64 67 66 65 64 63 60 57 53 51 52 52 58 58 59 64 66 76 77 70 72 74 75 73 72 75 80 68 57 67 60 50
95 90 93 100 104 107 106 108 111 104 106 110 105 107 104 103 94 58 48 71 92 100 98 92 85 90 92 87 94 90 73 62 53 56 81 99 98 103 106 102 101 98 90 74 66 64 53 43 37 35 35 36 35 34 40 45 49 52 51 51 53 52 49 50 56 64 66 66 66 65 63 60 57 56 54 53 56 65 64 63 76 85 93 93 89 86 76 77 83 79 69 60 55 54 59 49 45
94 91 95 105 108 105 104 107 107 102 108 113 105 105 105 100 96 71 60 79 97 102 102 100 86 83 95 95 97 91 69 56 54 53 64 78 83 96 107 104 99 93 84 71 63 58 47 35 31 32 32 35 39 37 43 48 50 52 50 50 52 53 51 52 56 62 65 65 66 63 61 59 58 59 57 58 66 76 76 79 93 100 102 100 99 95 84 86 87 79 66 53 52 51 44 37 41
90 88 98 106 106 104 104 103 101 101 109 110 97 97 100 96 91 75 73 85 87 91 105 109 88 74 86 97 100 92 73 66 63 60 60 65 75 92 98 95 97 92 79 69 61 52 40 29 27 30 28 35 41 38 43 49 50 52 51 49 50 51 52 53 56 61 64 65 65 60 58 57 59 61 60 70 86 92 93 97 101 101 102 102 101 99 97 95 87 79 72 57 49 44 39 34 36
89 81 95 107 107 106 102 101 102 101 106 108 96 91 91 95 98 80 78 92 90 94 108 110 88 67 67 79 95 94 75 64 60 58 54 60 75 87 86 82 92 92 78 70 60 49 39 29 28 29 27 35 41 39 43 48 51 54 53 50 49 50 52 54 57 61 63 64 62 59 57 57 62 69 69 79 97 103 99 100 100 100 102 101 100 100 101 100 95 87 75 64 54 45 45 40 32
90 74 88 106 110 106 101 103 104 100 103 105 97 89 81 89 104 91 83 88 91 100 103 106 100 76 64 68 79 82 71 61 60 63 60 65 76 79 74 72 85 89 76 71 61 48 40 30 27 28 27 34 41 40 43 50 53 56 55 53 50 50 51 54 57 60 63 63 60 58 58 58 64 73 73 70 86 102 92 83 92 100 100 100 102 102 100 100 100 91 80 83 73 46 41 42 33
74 72 85 102 107 105 104 105 102 99 102 102 100 94 78 80 100 99 92 85 87 104 100 103 112 88 69 68 70 75 78 74 69 68 66 72 79 72 66 69 80 84 73 67 59 48 41 31 25 27 28 31 39 41 44 51 56 58 58 56 53 52 52 55 58 61 62 60 59 61 59 59 64 69 69 57 64 84 76 67 82 98 99 99 102 101 102 102 102 98 92 100 86 47 33 34 30
44 62 81 92 99 104 106 106 103 100 102 103 102 96 82 83 95 94 97 95 94 109 103 103 112 96 77 69 76 92 93 86 78 69 64 71 77 67 61 64 71 75 69 61 53 45 39 32 26 27 28 30 37 43 46 51 56 59 60 59 57 55 55 57 59 60 61 60 62 66 62 61 65 67 67 60 58 64 66 72 84 98 101 98 102 104 102 98 102 104 97 104 88 46 29 27 24
24 39 61 77 90 103 106 106 104 101 103 104 95 89 88 85 79 80 97 100 98 106 101 105 110 98 88 73 78 101 102 93 83 67 59 63 68 60 54 56 58 64 63 54 47 40 35 31 27 27 30 31 36 44 48 51 56 61 62 62 61 58 57 59 62 62 62 63 66 68 68 64 65 66 64 62 56 50 67 92 99 100 95 93 102 103 100 98 100 100 97 104 80 36 26 25 20
19 22 35 54 76 97 104 102 102 102 103 102 94 91 94 79 62 78 98 90 89 95 92 107 109 94 98 90 86 100 102 101 93 73 58 52 55 52 47 48 50 56 59 54 49 42 33 29 27 29 33 32 36 46 51 51 54 60 63 63 62 60 61 61 63 65 64 66 70 71 71 66 64 60 52 50 48 51 77 102 105 99 87 91 104 98 97 101 98 100 101 87 52 25 25 22 19
19 19 21 30 53 80 90 91 99 106 101 97 98 96 89 70 57 80 97 90 95 98 96 111 103 89 101 104 100 103 102 107 108 94 73 55 52 49 45 47 48 51 54 55 54 46 34 28 28 31 36 37 38 48 54 52 52 57 59 61 62 60 60 62 63 66 66 68 72 73 71 66 63 52 43 46 52 71 96 103 103 101 93 99 106 98 94 100 102 102 87 54 28 23 24 19 21
18 18 20 20 29 47 63 77 93 102 96 94 103 95 78 67 67 86 98 98 105 101 100 109 98 96 109 108 106 106 102 106 110 103 88 70 61 56 51 50 50 49 49 52 55 51 37 28 29 33 39 41 42 51 57 52 49 53 55 59 61 58 59 62 65 67 67 69 72 74 71 65 60 50 48 58 72 92 103 103 101 97 98 98 98 102 101 101 99 79 50 28 23 22 19 21 23
22 19 22 20 19 23 39 62 75 81 87 98 107 96 84 82 83 95 104 106 106 95 98 105 100 106 111 105 104 105 106 107 108 104 91 76 68 63 58 56 56 55 54 56 59 55 39 29 32 35 40 44 47 56 58 50 48 50 53 57 56 55 59 64 67 68 66 68 70 72 68 61 56 54 63 81 95 101 100 104 100 80 78 76 75 88 83 69 59 38 25 22 21 19 20 25 26
32 26 22 18 17 18 24 36 44 57 77 96 106 100 98 97 92 99 108 110 106 96 104 111 105 106 104 96 93 94 102 104 105 108 96 79 72 68 64 63 65 67 67 69 69 59 40 31 34 38 44 49 53 61 59 50 47 48 51 55 55 56 64 69 70 69 68 70 71 70 64 56 58 69 86 99 97 96 101 102 81 52 47 48 49 56 45 32 26 20 21 20 18 21 28 33 33
36 30 23 17 16 18 21 20 23 40 63 80 90 93 98 99 97 107 112 108 105 101 109 112 104 105 102 97 95 91 98 103 104 111 106 89 78 72 72 71 72 78 81 80 76 60 41 36 40 46 53 54 59 66 60 49 46 47 53 59 59 62 69 73 72 70 70 72 71 68 63 59 67 85 102 106 93 92 102 90 60 42 39 41 42 40 29 22 21 20 20 19 22 31 42 49 49
38 35 27 19 16 17 19 17 18 30 48 61 64 72 92 101 101 110 110 103 108 108 106 105 98 98 98 93 99 99 98 102 103 105 105 97 83 72 70 73 74 80 83 80 74 62 50 44 46 56 63 61 65 67 56 48 47 50 59 62 59 65 72 74 75 74 74 77 77 76 76 73 76 91 103 106 99 96 102 92 73 58 48 46 44 34 25 21 20 20 19 23 31 43 55 62 62
45 47 39 29 26 25 22 19 21 29 36 40 39 47 76 95 99 109 109 102 111 108 95 98 97 94 98 95 98 105 104 102 98 93 91 89 81 74 80 87 86 88 89 85 81 76 65 55 59 69 69 64 64 63 55 51 54 58 61 58 59 67 74 79 84 85 86 89 91 92 95 90 86 95 103 104 102 100 102 96 79 61 51 50 43 29 23 21 21 20 22 31 42 51 61 64 66
47 52 50 43 41 41 35 23 23 32 32 27 24 32 53 71 87 105 108 104 111 99 77 92 106 96 101 105 99 104 108 101 90 81 79 75 70 76 94 102 99 99 101 101 101 95 80 69 72 75 68 65 65 64 62 59 61 63 60 59 64 69 75 87 96 98 98 97 95 97 101 99 95 100 105 105 102 100 99 87 69 58 53 47 36 26 22 22 21 21 28 41 51 59 65 69 74
47 52 54 50 48 49 44 32 31 37 32 24 20 26 34 44 64 85 100 108 111 95 69 84 109 100 94 100 96 100 106 98 87 79 72 66 66 71 83 94 100 103 102 104 108 99 84 77 80 79 72 70 69 68 66 65 70 70 69 74 78 79 86 98 103 103 102 99 96 98 100 100 100 101 101 99 93 90 87 76 65 58 51 41 31 24 23 23 22 24 35 49 60 69 76 81 86
49 51 52 49 45 50 53 46 44 42 32 23 19 23 27 32 44 59 81 102 106 100 79 77 102 107 97 97 97 99 98 89 91 96 81 63 60 61 69 82 94 103 102 102 104 92 80 84 89 84 74 66 65 70 72 76 87 90 91 94 94 93 98 102 103 102 102 100 99 100 100 98 97 94 88 86 83 77 71 65 63 55 45 37 28 23 25 24 25 32 46 61 72 79 85 89 88
52 51 52 49 43 47 54 52 53 51 41 29 20 21 25 29 35 40 55 75 87 98 95 82 93 108 106 99 91 85 82 79 88 102 98 86 77 71 76 83 86 98 105 103 102 93 84 90 91 79 68 64 69 79 80 83 93 96 94 93 97 101 101 101 101 98 93 89 90 90 86 82 77 71 70 75 73 66 64 69 67 52 41 34 26 26 28 25 30 40 53 67 77 80 83 84 81
54 50 47 45 45 46 48 50 56 60 55 45 31 24 25 26 29 29 34 46 61 84 101 94 91 102 108 103 85 69 74 87 92 93 97 107 106 94 92 92 88 96 105 105 104 99 92 91 85 74 68 70 79 84 82 80 79 79 79 81 93 103 102 102 101 94 84 78 74 68 63 62 58 57 64 72 73 74 83 87 69 46 37 31 26 29 28 27 35 44 52 63 72 75 76 75 74
52 48 43 42 45 46 49 56 60 60 62 58 47 36 27 22 25 26 25 29 39 61 84 89 92 101 106 107 92 71 73 92 103 95 91 107 114 102 97 99 99 99 101 104 102 99 100 95 84 73 68 74 83 86 88 90 84 81 84 89 99 105 102 103 103 97 89 83 78 70 62 62 66 70 79 85 88 95 102 87 57 40 36 28 27 32 28 29 40 49 56 63 67 69 70 69 68
48 45 45 45 44 43 47 58 60 56 58 58 56 52 36 24 26 27 24 22 25 41 58 68 83 98 102 107 104 88 74 82 104 102 94 107 108 99 99 100 102 103 99 101 101 103 105 96 83 73 73 84 93 95 95 96 98 99 99 95 92 92 91 95 102 104 101 97 96 90 81 81 87 92 96 97 97 103 98 71 45 38 32 26 30 32 27 30 42 52 58 62 64 64 63 61 59
46 45 48 48 44 42 44 53 58 56 58 59 60 58 45 38 36 26 22 21 18 29 43 46 57 81 99 104 104 103 85 76 97 104 102 111 101 90 99 101 103 107 104 101 100 102 101 90 80 75 80 92 99 103 99 87 86 91 89 83 77 73 73 76 85 92 95 96 98 99 98 98 102 101 95 92 97 105 89 57 40 36 29 28 32 28 26 32 42 51 56 58 59 57 55 57 63
45 45 49 47 44 45 46 52 57 60 66 64 60 57 49 49 46 28 22 23 18 23 33 35 34 54 94 110 101 102 96 86 95 103 108 112 99 92 100 103 105 106 101 100 97 97 97 89 81 77 81 90 93 96 95 84 81 81 79 77 73 69 67 64 67 71 73 76 81 92 103 103 100 96 84 81 96 104 79 48 38 32 29 32 31 27 27 31 38 46 50 50 51 52 58 65 72
46 47 47 45 46 48 48 50 52 58 66 59 53 57 49 42 41 33 31 29 22 21 24 30 27 30 70 110 109 96 92 92 96 104 111 110 102 103 106 102 100 100 98 99 97 96 96 92 87 83 83 89 89 87 87 86 86 85 82 78 73 72 71 67 68 70 69 72 76 86 96 94 89 82 74 80 99 96 66 43 35 30 34 36 30 28 29 30 36 39 41 44 49 56 62 63 59
44 49 47 46 50 51 49 50 50 60 70 59 52 58 49 35 33 37 46 44 30 24 21 24 28 23 38 77 99 95 88 90 94 103 110 106 106 109 107 99 94 98 102 100 97 95 94 94 94 93 92 91 91 88 87 89 90 89 85 81 78 77 74 72 74 75 74 75 78 81 84 81 76 72 75 91 103 85 54 38 33 31 37 36 30 30 30 31 34 36 39 44 49 54 52 47 44
45 47 47 51 54 51 49 50 52 62 68 59 55 55 44 33 31 36 54 59 43 31 26 21 24 29 30 41 62 80 90 94 95 102 106 104 107 106 100 97 96 101 104 99 98 98 95 97 98 99 100 96 93 91 90 92 92 90 87 85 83 79 76 76 77 79 79 78 78 80 79 75 74 75 85 101 98 71 45 33 31 32 36 35 32 32 32 34 36 37 40 42 44 45 42 41 42
48 46 47 56 59 53 49 48 49 54 54 48 46 43 34 30 30 36 56 67 55 43 37 28 23 26 31 30 34 52 73 85 91 99 101 98 103 104 98 96 96 101 102 97 97 99 97 100 102 101 100 96 94 92 92 93 91 89 88 86 84 82 81 80 79 81 81 80 80 81 78 78 78 72 81 100 88 55 35 29 30 33 33 33 33 32 34 37 39 41 41 41 41 40 40 41 40
53 51 50 56 58 51 48 48 48 46 44 42 40 38 35 33 30 37 61 72 59 53 49 39 30 24 27 31 28 34 47 59 72 84 91 95 98 100 100 99 100 105 106 100 96 98 102 104 102 100 97 94 91 88 89 90 88 89 90 88 86 87 87 84 81 80 82 83 83 82 79 75 67 57 70 88 70 39 29 29 30 33 32 32 33 33 36 39 42 43 41 40 39 39 39 38 35
58 59 57 59 60 51 44 46 46 43 42 40 39 41 36 30 30 39 67 78 63 60 58 47 44 35 26 30 28 28 35 40 49 62 83 102 102 100 103 101 101 106 107 104 101 102 105 102 95 92 92 91 87 85 86 86 88 91 92 88 85 85 84 82 79 79 82 83 81 77 70 60 49 46 58 62 44 30 29 29 30 32 33 33 34 35 38 41 43 42 40 39 39 38 36 34 37
59 63 64 63 61 52 43 45 49 48 47 44 46 51 36 29 42 46 64 86 76 70 66 52 55 53 37 32 29 26 30 34 40 46 69 98 103 102 105 100 101 104 103 105 106 104 100 92 85 82 84 85 82 82 84 86 91 93 88 81 76 77 78 78 76 76 76 72 66 59 51 44 37 36 38 36 30 28 29 29 32 33 33 35 35 37 40 41 41 40 39 38 36 34 34 40 48
61 68 73 69 63 56 46 44 54 59 58 54 58 62 43 38 57 52 55 83 84 76 68 50 56 64 50 42 38 29 25 30 38 39 52 79 87 86 95 103 103 101 102 105 104 102 97 88 80 75 76 78 78 80 85 91 92 87 78 70 68 71 73 72 69 65 61 54 47 42 37 34 30 27 27 28 28 29 29 31 32 33 36 36 36 38 40 40 40 39 37 35 33 33 38 48 53
64 72 75 73 74 77 69 55 56 61 61 61 65 64 46 41 59 52 49 78 89 80 68 50 56 68 60 54 49 39 31 29 35 40 49 68 73 72 86 103 106 102 106 106 100 100 100 93 84 77 77 83 84 82 84 87 83 73 66 62 62 63 62 60 55 49 44 39 34 32 30 30 26 24 26 27 28 29 31 32 33 35 38 37 38 40 40 40 39 37 35 33 32 34 40 47 50
56 67 71 75 79 86 86 68 59 61 62 65 69 66 51 44 54 55 57 82 98 90 73 57 64 72 68 66 61 51 43 33 28 32 43 60 61 50 57 84 101 99 93 89 90 98 100 93 86 84 92 101 97 84 75 72 68 61 57 54 52 52 48 44 40 35 32 29 26 26 26 26 25 25 27 28 29 31 31 32 35 38 39 39 41 41 41 40 38 35 33 34 38 42 46 49 49
37 54 70 86 90 90 89 73 61 65 68 72 76 71 62 56 59 67 78 89 93 92 81 68 75 82 78 77 72 62 55 46 36 28 39 72 80 56 49 70 85 80 71 72 78 82 79 73 69 75 88 92 80 68 61 56 53 49 45 43 40 38 35 32 29 27 25 24 24 24 24 25 26 28 30 30 31 32 32 35 38 40 41 42 42 42 42 39 34 33 36 45 53 53 51 51 49
21 38 63 89 99 97 97 88 79 79 78 74 74 72 67 68 74 83 93 89 81 93 96 79 81 90 84 76 70 66 62 55 46 31 30 58 74 61 52 54 55 55 56 56 55 57 60 57 53 56 62 61 54 49 45 41 39 37 34 33 31 29 27 26 25 24 24 24 25 25 25 27 28 30 31 32 33 34 35 38 40 42 43 43 44 43 40 35 34 40 51 61 64 57 53 53 48
15 26 53 83 97 96 97 99 98 99 96 83 77 75 71 77 89 91 91 86 83 102 111 93 88 96 90 77 73 80 77 60 53 48 37 37 45 46 43 40 41 42 46 55 63 67 63 52 45 46 47 49 48 41 35 31 30 29 28 27 26 26 25 25 25 26 26 26 26 27 28 30 31 33 34 34 35 37 39 42 43 44 44 45 44 39 35 35 40 51 60 64 62 57 57 56 51
Wind_Speed
50 48 47 46 48 50 50 48 46 46 46 47 48 47 47 45 40 40 37 33 30 28 30 33 34 37 38 36 34 32 29 21 16 17 21 22 24 27 28 27 26 27 28 28 29 30 31 31 32 32 33 33 34 35 36 36 36 35 34 34 33 32 32 31 28 28 27 27 27 27 26 25 25 23 23 22 20 21 23 28 29 28 27 26 25 24 24 24 23 21 19 19 18 16 13 12 11
50 48 48 47 48 49 49 47 46 47 48 49 48 48 49 47 45 46 42 36 35 32 28 31 35 37 38 39 34 31 31 26 21 19 20 23 24 26 29 29 27 26 27 27 28 30 31 31 32 32 33 33 34 35 36 36 36 35 35 34 33 32 31 29 26 27 27 26 27 27 26 25 24 23 22 21 21 21 23 27 27 27 26 25 25 24 24 24 25 22 20 19 18 17 14 12 10
54 52 50 49 48 48 47 47 48 48 49 50 49 50 50 48 49 49 45 41 42 40 37 36 38 39 39 40 37 35 34 30 25 21 22 25 26 29 31 31 30 27 27 27 27 29 30 31 31 31 32 32 33 34 35 35 35 35 35 34 32 31 30 27 25 27 27 27 28 27 25 25 24 22 22 22 21 22 23 26 26 26 25 24 24 24 25 25 25 25 22 20 19 18 15 12 10
57 57 56 54 52 51 49 47 50 50 49 52 52 52 51 49 49 47 43 41 43 45 46 46 45 44 42 40 38 38 38 34 30 26 26 28 29 30 32 33 31 28 26 26 26 27 29 30 31 31 31 32 32 32 33 33 33 33 33 33 31 29 28 26 25 27 28 27 28 27 25 25 25 23 22 22 22 22 24 26 26 25 24 24 24 24 26 25 25 25 25 23 22 19 17 14 11
60 61 60 59 57 56 53 50 53 52 51 55 54 52 51 49 47 44 40 40 44 46 47 48 46 44 42 40 36 36 38 37 36 33 32 32 33 32 32 33 30 27 26 26 27 28 30 32 32 32 33 32 32 31 31 31 31 31 32 32 29 28 27 26 25 26 28 28 28 27 26 26 25 24 23 23 23 23 25 26 26 26 24 23 23 24 26 26 26 25 24 24 24 22 19 16 14
62 62 60 59 57 56 55 55 57 54 54 56 54 53 52 49 44 42 40 40 45 45 45 46 43 41 41 39 36 38 37 37 37 37 38 38 37 36 35 33 29 26 26 26 28 29 31 32 33 34 34 34 33 31 31 31 31 31 31 31 29 27 27 26 25 26 28 28 28 27 26 27 26 25 24 24 24 24 25 25 26 26 25 24 22 23 24 25 25 25 25 24 24 23 22 20 17
64 62 61 58 55 56 57 58 58 57 57 55 55 55 53 50 41 41 42 41 44 44 43 43 42 41 39 38 36 37 35 33 35 38 41 40 39 38 37 34 29 26 26 27 29 30 31 32 33 34 34 34 33 32 31 31 31 31 31 31 30 28 27 26 25 26 28 28 28 27 27 27 26 25 24 24 25 24 25 26 27 26 25 25 23 22 22 23 24 24 25 24 23 23 22 21 20
67 66 63 61 57 55 57 59 59 60 59 55 57 55 53 51 42 44 46 43 45 44 42 42 43 39 37 39 37 35 35 35 35 38 41 42 42 38 36 35 32 29 28 29 29 30 32 33 34 34 34 34 33 32 32 31 31 32 32 32 31 29 28 26 25 26 28 28 28 27 27 27 26 25 25 25 25 25 26 27 27 26 26 26 25 23 21 22 23 23 23 23 22 22 22 21 20
71 69 66 65 63 57 56 59 60 61 59 56 57 54 52 51 45 48 49 47 46 44 44 42 42 38 36 40 38 36 39 38 37 39 41 43 43 39 37 38 35 31 31 30 30 31 32 33 33 34 33 33 33 32 32 32 31 32 32 32 31 30 28 26 26 26 28 28 28 27 27 26 25 24 25 25 26 26 27 27 28 29 30 29 28 26 23 21 21 22 22 21 20 20 20 20 20
74 70 68 67 66 61 59 61 61 62 60 57 57 51 48 48 45 47 50 50 46 43 45 42 41 39 36 41 40 38 41 42 41 42 43 45 44 40 38 37 36 33 32 31 31 32 32 33 33 33 32 32 32 32 32 32 31 31 32 32 32 30 28 27 26 27 28 29 29 28 27 26 25 25 25 26 27 27 28 30 32 32 32 31 29 28 26 23 21 21 22 21 20 19 18 18 19
77 73 71 68 66 65 62 64 64 64 63 59 57 49 45 47 46 48 50 49 45 44 46 43 41 38 37 43 42 39 44 47 46 46 46 46 45 42 39 37 37 35 34 33 32 33 33 32 32 31 31 31 32 32 32 31 30 30 31 32 32 30 28 27 26 27 28 29 29 28 28 27 27 26 27 28 29 30 31 33 33 33 32 31 30 28 26 24 23 22 22 22 22 21 20 19 18
80 78 76 71 68 69 68 68 67 67 66 62 57 50 47 48 47 48 49 47 47 47 47 44 41 39 40 45 45 43 46 49 50 49 48 46 45 45 41 37 37 37 36 35 35 35 33 31 30 30 30 31 31 32 32 31 30 29 30 32 32 30 28 27 26 27 28 29 29 28 28 28 28 27 28 29 30 31 32 32 32 32 33 31 29 27 26 25 24 23 23 23 24 24 23 23 22
80 79 79 74 70 72 72 70 70 69 68 66 61 55 53 50 48 50 51 51 52 50 47 45 41 42 44 45 46 47 47 47 48 48 47 45 46 45 40 37 37 38 37 36 37 36 33 31 30 30 30 31 31 32 32 31 30 29 30 31 31 29 27 27 27 27 28 29 29 29 28 28 28 28 29 30 31 31 31 32 32 32 32 30 27 26 27 27 26 25 25 25 26 26 26 26 26
76 77 77 75 74 75 73 71 72 71 69 67 62 60 59 54 52 53 54 57 57 52 49 47 43 46 47 46 46 49 49 47 47 46 45 43 43 45 41 39 39 38 38 38 38 36 33 31 30 30 30 31 32 33 32 32 30 29 30 31 31 29 27 27 27 27 28 29 29 29 29 29 29 29 30 30 31 32 32 33 32 32 31 27 26 28 29 29 28 26 26 27 28 28 28 28 28
74 77 77 74 75 77 74 71 71 71 69 68 64 63 64 61 61 60 58 61 59 51 49 47 47 48 47 48 49 50 50 49 49 47 46 44 43 45 44 44 43 39 37 38 39 37 34 33 33 32 31 31 32 33 33 32 31 29 29 31 31 29 27 27 27 27 28 29 29 30 30 30 31 31 31 32 32 33 34 34 33 32 29 26 28 31 31 30 29 28 28 28 29 30 30 30 30
75 78 78 75 73 74 75 73 73 73 69 69 68 68 68 68 68 66 64 65 62 54 50 48 50 50 47 51 53 51 51 49 48 47 46 45 43 47 49 48 47 41 37 37 39 39 37 37 36 35 34 33 33 34 33 32 31 29 29 30 30 29 28 27 27 27 28 29 30 30 31 32 32 33 33 33 34 34 35 35 35 33 29 28 32 35 33 31 29 29 29 29 30 31 31 32 33
77 80 78 73 70 69 72 74 76 76 72 72 73 72 71 72 72 70 69 68 65 62 56 51 53 53 50 52 53 51 48 46 45 45 44 43 44 48 50 48 45 40 37 38 39 40 39 38 37 36 37 36 35 35 33 32 32 30 28 29 30 29 28 27 27 27 28 29 30 31 32 33 34 34 34 35 35 36 36 36 35 33 32 33 35 35 32 31 31 30 29 29 30 30 31 32 34
79 81 75 70 68 67 69 73 78 78 77 78 77 75 73 74 74 70 70 70 69 68 62 57 56 55 54 54 54 52 47 44 45 45 44 43 44 45 46 45 42 39 38 38 38 38 38 38 37 37 37 37 36 37 33 32 33 31 29 28 29 29 27 26 27 27 28 30 31 32 32 33 34 34 35 36 37 37 37 37 35 36 36 35 35 33 32 32 31 29 29 28 27 28 30 31 33
81 78 72 69 68 68 69 72 76 78 78 80 79 77 73 74 76 69 66 70 70 69 67 61 57 57 58 56 55 52 46 46 47 47 47 46 45 46 47 46 43 41 40 38 38 38 39 39 38 36 36 36 37 37 34 32 33 32 30 28 28 28 27 26 26 27 29 30 31 32 33 34 35 35 36 36 37 38 38 37 36 39 37 35 35 32 31 29 28 28 28 27 27 28 30 30 31
81 76 71 68 68 69 72 72 75 77 79 82 82 81 78 77 77 69 64 68 68 68 69 64 59 59 60 59 57 53 49 49 50 49 47 46 46 48 49 48 44 42 41 40 40 40 41 40 37 35 34 34 36 37 34 32 32 32 31 29 28 28 27 26 27 28 29 30 31 32 33 34 35 36 36 37 38 38 38 37 38 39 35 34 33 29 29 29 28 28 27 28 32 32 29 31 34
81 77 71 68 69 71 72 74 76 77 79 84 84 84 85 81 79 72 66 67 66 65 65 63 61 60 60 61 58 55 53 52 52 50 48 48 48 48 49 48 45 43 42 43 42 41 41 40 38 35 33 34 36 36 33 32 32 32 31 30 29 28 27 27 27 28 29 30 31 32 33 34 35 36 36 37 38 38 38 38 38 38 33 31 30 29 32 32 29 28 30 33 36 35 33 36 39
82 79 74 71 72 72 73 75 77 77 80 84 83 83 83 80 78 74 69 68 66 64 61 62 63 59 57 59 58 57 56 55 54 51 51 53 52 50 51 48 45 44 44 44 43 42 41 39 37 35 35 35 35 35 33 31 32 32 31 30 29 28 28 27 27 29 30 31 31 32 33 34 35 36 36 37 37 37 36 35 36 34 30 30 32 34 34 32 30 32 35 35 35 37 39 41 41
85 81 76 75 75 74 74 76 77 78 83 85 80 79 80 77 75 72 70 70 69 65 61 63 65 60 56 57 58 59 57 56 55 53 53 54 53 52 52 49 46 46 46 46 45 44 41 38 35 35 36 36 35 34 32 31 32 32 31 30 30 30 29 28 28 30 30 31 31 32 33 34 35 36 35 33 33 33 32 33 34 33 30 32 37 38 36 32 32 35 36 34 36 40 42 43 43
87 82 77 77 78 77 75 75 78 81 86 85 78 77 78 75 74 72 72 73 72 69 65 67 69 63 58 58 59 60 58 56 56 55 54 54 54 52 52 50 47 46 46 47 47 46 43 38 35 34 36 37 36 34 33 31 32 32 31 30 31 31 30 29 29 30 31 31 32 32 33 33 33 33 31 30 32 30 28 30 31 29 30 34 38 40 38 35 33 34 33 34 38 41 43 46 47
89 83 78 78 79 79 76 76 80 82 85 84 78 78 76 72 73 73 72 74 74 73 70 69 71 68 61 59 60 61 59 58 57 57 55 54 54 54 52 49 46 45 46 48 49 48 44 38 35 35 37 38 36 35 33 32 33 32 31 31 31 31 30 30 30 30 31 32 32 33 32 32 31 31 30 31 34 30 28 31 29 27 29 34 39 39 37 37 37 34 32 36 42 45 47 48 49
89 82 79 79 79 79 79 80 82 82 82 81 79 78 74 70 73 73 71 73 75 76 73 71 73 72 65 60 60 61 60 59 58 57 55 53 54 54 52 49 46 45 47 49 50 49 45 40 36 36 38 38 36 35 34 33 34 33 32 31 31 31 31 30 31 31 32 32 33 32 31 31 32 32 33 35 36 33 32 33 32 30 28 31 39 39 38 39 39 37 36 41 48 52 53 52 52
86 82 82 83 82 81 82 83 84 83 81 80 79 78 73 71 73 70 67 71 75 78 77 75 77 75 69 62 60 62 62 60 59 58 56 54 55 55 52 50 48 47 49 50 50 49 46 43 40 38 39 39 37 35 35 34 35 34 33 32 31 32 31 31 31 32 32 32 33 32 32 32 32 34 35 35 35 36 35 33 32 32 28 32 39 41 40 37 36 38 40 46 55 60 59 56 54
86 85 85 86 87 86 86 86 85 83 81 80 79 76 74 75 72 64 64 69 73 78 77 79 81 77 72 65 62 66 65 61 60 59 57 56 57 57 55 53 51 49 50 50 50 50 47 46 43 41 41 39 37 36 36 36 36 35 34 33 32 32 32 32 32 32 32 33 33 32 33 33 33 35 35 33 34 37 36 34 33 33 32 36 37 33 34 31 30 35 43 53 63 66 63 59 56
85 87 88 89 89 89 89 87 84 83 81 80 78 77 78 77 67 60 65 69 70 73 73 79 81 75 73 69 66 70 68 63 61 60 58 57 57 58 57 56 54 52 51 51 51 51 47 46 45 42 42 40 38 37 37 37 36 36 35 34 33 33 32 32 33 33 33 33 33 33 33 34 34 36 36 34 35 36 35 36 36 36 36 37 33 23 21 23 28 38 49 61 67 67 64 60 57
84 86 89 91 91 91 90 88 84 83 82 79 80 82 80 74 64 60 67 70 69 69 70 77 77 71 72 71 69 72 69 64 63 61 59 58 58 59 57 57 57 55 54 52 52 52 48 46 45 43 42 41 40 38 38 38 37 37 36 35 34 33 33 33 33 33 33 34 33 33 34 35 35 36 37 35 34 35 36 37 37 39 38 36 32 24 23 28 37 48 59 67 67 64 62 59 56
85 85 87 91 93 91 87 85 85 86 82 79 82 84 78 71 65 63 70 73 70 69 70 74 73 69 71 71 70 72 70 67 65 62 61 60 59 59 58 58 59 58 56 54 53 53 49 45 44 42 42 42 41 39 38 38 37 37 37 36 35 34 34 34 34 34 33 34 34 34 35 35 36 36 35 33 33 35 37 37 38 41 40 38 35 29 31 38 47 58 65 66 63 60 59 56 54
86 85 87 89 90 87 84 85 87 85 80 79 84 82 74 70 68 68 73 74 73 71 70 71 71 70 71 69 68 70 70 69 66 63 62 61 60 60 59 58 59 59 58 56 55 54 50 45 43 42 42 43 42 39 37 37 37 37 37 36 36 35 35 34 34 34 34 34 34 35 36 35 35 35 34 32 32 35 36 37 39 41 42 43 41 36 40 48 56 62 64 61 59 57 56 54 51
86 87 88 86 82 79 81 86 85 80 78 82 87 81 72 70 70 73 76 75 74 72 70 72 71 70 70 67 66 66 67 68 66 64 63 61 60 60 59 58 59 60 59 57 56 54 51 47 45 44 45 45 42 38 37 37 38 38 38 37 37 37 36 35 34 34 34 35 35 36 36 35 34 33 33 32 33 34 35 37 40 44 46 50 51 49 52 56 58 59 58 56 55 54 52 51 49
86 85 83 81 76 72 76 83 81 77 81 88 90 82 73 72 75 77 78 76 76 73 71 73 72 70 69 67 65 64 65 66 64 64 64 62 60 58 58 59 58 59 59 57 56 54 52 49 47 47 48 46 42 38 37 38 38 39 38 37 38 38 36 35 35 35 35 35 37 37 36 35 34 34 35 36 36 36 37 39 43 48 52 55 56 55 56 56 56 55 53 52 51 50 49 47 45
81 78 77 75 72 68 73 78 76 79 87 93 92 81 74 77 80 80 78 76 77 76 73 74 74 71 69 67 66 64 63 64 64 64 62 61 58 56 58 59 57 57 57 56 57 56 54 53 51 50 50 46 41 39 38 38 39 38 38 38 39 38 37 37 37 36 36 36 37 38 37 36 36 37 39 39 38 37 39 42 46 51 56 57 57 56 55 54 53 51 50 49 48 46 45 44 42
78 75 75 74 69 67 74 79 76 81 92 97 92 80 76 82 83 80 79 77 79 79 75 74 74 70 69 68 65 63 63 64 65 63 61 60 57 55 57 59 57 57 58 58 59 59 57 55 53 51 49 45 40 39 39 39 40 39 39 40 39 38 37 37 36 35 34 33 34 37 38 39 38 38 38 37 37 38 41 46 51 56 59 59 57 56 55 53 51 49 47 46 44 43 42 41 41
80 79 79 79 74 72 79 82 77 81 92 95 88 79 79 84 84 82 80 79 81 81 74 71 72 70 68 67 64 62 64 65 65 63 61 59 56 56 57 58 57 55 54 55 57 57 56 54 52 51 47 43 40 40 41 41 41 41 41 41 39 37 37 35 34 32 32 32 33 35 36 37 37 36 34 35 39 43 47 52 55 58 59 58 56 55 53 51 49 47 44 42 41 40 40 39 39
85 84 84 83 80 77 79 78 74 80 89 88 82 79 82 85 85 83 81 80 82 81 74 69 71 70 68 67 64 63 64 64 62 62 61 58 56 57 58 57 55 51 48 49 52 53 53 51 51 50 46 42 41 41 42 41 41 41 41 40 38 37 36 33 32 32 33 33 33 33 35 36 38 39 39 40 44 47 50 54 56 57 58 56 55 54 52 49 47 44 42 40 38 37 38 38 37
91 89 88 87 82 77 78 77 75 82 87 84 78 77 81 85 86 84 83 82 80 79 75 71 70 69 67 68 66 64 65 63 59 60 60 58 56 56 56 56 55 52 48 48 50 49 50 51 50 49 45 43 43 42 41 40 38 39 39 38 36 36 35 32 32 33 32 31 32 34 37 39 42 44 45 46 48 50 53 55 56 57 56 55 55 53 50 48 46 43 40 39 37 37 38 39 40
97 95 93 90 84 79 79 78 76 80 83 81 77 76 79 85 89 87 85 82 79 77 76 74 72 68 67 69 68 65 64 61 59 59 57 57 58 56 55 56 56 55 52 50 52 51 50 52 51 48 45 44 44 42 42 41 40 40 40 39 38 36 34 33 33 34 34 34 36 39 41 44 46 48 49 50 51 53 55 56 55 55 55 56 55 52 49 47 44 42 40 39 39 39 40 42 43
102 99 95 90 85 82 79 77 77 79 81 80 78 79 81 84 87 87 85 82 79 78 78 76 72 69 68 70 70 65 60 59 59 59 55 57 61 59 56 58 58 58 57 56 58 56 54 54 51 48 46 45 44 43 43 44 44 44 43 43 43 39 35 35 36 37 39 41 42 44 46 47 48 50 51 52 53 55 56 55 54 56 56 55 53 50 48 46 43 42 41 40 41 42 43 44 44
104 100 94 89 86 83 79 78 80 82 82 81 80 81 82 81 81 82 83 84 82 80 80 77 71 69 69 69 70 65 59 57 58 58 55 57 63 61 57 59 60 61 61 61 62 59 56 55 51 48 46 45 45 45 45 45 45 44 43 44 44 42 39 40 41 42 42 43 45 47 48 49 50 50 51 52 54 56 54 54 55 56 56 55 52 49 47 44 42 41 41 41 42 42 43 44 44
105 99 94 90 88 85 81 82 84 84 82 81 81 82 81 78 78 80 81 83 81 79 80 77 72 70 69 68 69 67 62 57 57 59 56 58 62 60 57 58 61 62 62 62 62 59 57 54 51 48 47 46 45 45 45 44 42 42 42 43 45 45 46 46 44 43 43 44 45 47 48 49 50 50 50 53 56 54 52 53 55 56 56 55 50 47 45 43 41 41 40 41 41 42 43 44 45
106 99 95 94 91 87 85 85 86 85 84 84 83 83 81 77 78 79 77 77 76 77 80 77 72 69 69 70 70 69 66 60 58 58 57 59 62 58 56 57 58 59 60 60 59 57 56 54 51 49 47 45 44 44 45 44 44 44 45 47 48 49 50 50 49 48 48 48 48 49 50 50 50 50 53 57 58 54 53 54 56 57 56 52 47 45 44 42 41 41 41 41 42 43 44 45 46
107 101 99 97 93 90 89 89 89 87 89 89 85 84 82 78 77 74 70 73 74 74 76 75 72 68 68 72 73 71 68 63 60 60 59 60 61 58 57 56 55 56 57 58 57 55 55 53 52 50 49 48 48 47 48 48 48 49 50 50 51 51 51 51 52 54 53 53 53 52 52 53 53 54 57 60 59 56 55 56 57 58 55 50 46 45 43 42 42 41 42 42 43 44 45 47 49
109 105 103 99 96 95 95 94 93 92 94 93 87 87 86 78 72 67 64 70 73 70 70 71 73 71 69 72 73 72 69 64 62 62 61 61 60 59 59 58 56 56 58 57 55 54 54 53 53 51 50 50 51 51 51 51 51 52 52 51 51 52 52 52 53 54 54 53 54 54 55 56 57 57 59 61 58 55 55 57 59 57 53 49 46 44 43 42 42 42 43 44 44 46 48 49 51
110 109 106 102 101 101 100 98 97 97 98 96 89 89 86 73 65 63 62 65 68 66 67 70 72 72 74 75 74 71 68 66 64 63 63 62 60 60 60 60 58 57 58 56 54 55 54 54 53 52 52 52 52 52 51 52 53 53 53 53 53 54 53 53 53 54 54 53 54 55 56 57 58 58 60 58 55 55 57 59 59 56 52 49 46 44 44 43 43 43 44 45 46 48 49 51 53
108 109 108 106 106 106 105 104 103 103 102 98 92 89 84 70 62 63 61 61 63 65 68 69 67 70 76 78 75 72 70 69 66 63 63 61 60 61 61 60 59 59 59 57 56 56 55 54 54 53 53 53 53 53 53 54 55 55 54 54 54 54 53 53 53 53 53 54 54 55 56 57 58 58 58 56 55 57 59 60 58 55 52 49 46 45 45 44 43 44 45 47 48 49 51 52 54
105 107 108 109 111 111 110 108 106 105 102 97 92 87 80 68 61 61 60 62 65 66 67 67 65 69 75 77 75 74 74 72 67 64 62 59 58 59 61 61 60 60 61 59 57 57 56 55 55 54 54 54 54 54 55 56 56 55 55 54 54 54 53 53 53 54 54 55 55 56 57 57 58 58 57 56 57 59 61 60 57 54 51 49 47 46 45 44 44 45 47 48 50 51 52 53 54
105 105 106 109 112 113 112 110 107 105 101 96 89 84 79 71 64 59 58 64 68 65 66 66 64 67 70 73 75 75 76 73 69 65 62 59 57 55 57 58 58 60 61 58 56 56 56 55 55 55 55 55 55 55 56 56 56 55 54 54 54 53 53 54 54 55 56 56 56 57 57 57 57 58 57 56 59 62 62 59 56 53 51 49 47 46 45 45 46 47 49 50 52 52 53 54 55
107 105 105 107 110 111 110 108 106 102 98 93 87 86 84 73 62 58 60 67 69 66 67 64 61 65 67 70 73 73 73 70 67 65 60 58 59 57 56 54 54 58 58 55 55 55 55 55 54 55 55 56 55 55 55 55 55 54 54 53 53 54 54 55 55 56 57 57 57 57 57 57 58 58 57 58 61 62 60 57 55 52 50 48 47 46 46 46 47 49 51 52 52 53 53 54 55
110 107 105 106 108 108 107 104 102 99 95 92 89 90 85 69 61 65 67 69 70 68 67 61 58 64 65 66 69 68 68 66 64 64 61 59 60 60 58 53 52 55 55 53 54 55 55 55 55 56 56 56 56 55 54 54 54 54 54 54 54 55 56 56 56 57 58 58 58 58 59 60 60 59 59 60 61 60 57 55 53 51 49 48 47 46 47 48 49 50 52 52 53 53 54 54 55
111 109 108 106 105 105 104 101 99 99 97 95 93 92 84 69 68 73 69 67 69 69 68 60 55 61 63 63 65 65 65 63 61 63 63 63 64 63 60 56 55 57 56 54 54 55 56 57 57 57 57 57 56 54 54 54 55 55 55 55 56 56 57 57 58 59 60 60 60 60 61 60 60 59 59 58 57 56 55 53 51 49 48 47 47 47 48 49 50 51 52 52 53 54 54 54 55
113 111 110 108 105 105 104 100 98 99 97 94 93 91 83 74 74 74 67 67 70 70 69 61 55 60 62 61 63 63 62 60 58 58 59 62 64 63 60 57 57 59 58 56 54 55 57 57 58 58 57 58 57 55 55 56 57 56 57 58 57 58 58 59 60 61 61 62 61 61 60 59 58 57 56 55 55 54 53 51 50 49 48 47 47 48 49 50 51 51 52 53 54 54 54 55 55
113 112 110 108 107 107 106 101 96 94 93 91 90 89 82 76 75 72 68 70 72 72 71 62 57 60 59 58 62 63 61 59 57 56 57 62 65 66 64 61 60 58 58 58 58 58 59 59 59 58 57 56 56 57 57 58 59 59 59 60 59 60 60 61 61 61 62 61 60 59 57 56 55 54 53 53 53 52 51 50 49 48 47 48 48 49 50 51 51 52 53 54 54 54 54 54 55
111 112 111 110 109 108 107 101 94 92 92 91 89 87 81 77 74 70 72 75 73 73 72 64 61 62 57 56 60 61 58 56 55 55 57 61 63 65 66 64 62 59 58 59 59 59 61 62 62 60 57 57 58 60 60 60 60 60 61 61 61 61 61 61 61 60 59 58 57 56 55 54 53 52 52 52 51 50 49 48 48 47 48 48 49 50 50 50 51 52 53 53 53 53 53 54 55
106 110 112 113 112 111 108 103 97 95 95 92 89 86 80 76 73 72 76 77 71 71 73 68 64 65 63 61 62 61 59 55 52 52 58 63 64 64 64 64 64 63 61 61 61 61 63 64 64 62 60 59 60 61 61 61 61 61 61 61 61 60 60 59 58 57 56 55 54 53 52 52 51 51 51 50 49 49 48 47 47 47 48 49 49 50 50 51 52 52 52 52 53 53 53 55 55
101 107 112 113 113 112 110 106 103 100 98 95 90 86 79 74 73 75 78 75 70 72 75 70 66 66 65 62 60 59 58 55 50 50 57 63 65 64 63 63 63 63 63 63 63 62 61 60 61 61 59 58 58 59 60 59 59 60 59 59 58 58 57 56 55 54 53 52 52 51 50 50 50 49 49 48 48 47 47 47 47 47 48 48 49 49 50 51 51 51 52 52 52 53 54 55 56
Wind_Direction
244 242 239 240 243 244 244 243 245 245 244 243 242 242 240 238 233 227 226 228 231 234 240 244 245 248 250 252 255 257 259 267 267 253 248 253 260 256 255 260 259 258 260 264 268 272 274 274 276 279 282 285 288 290 291 291 292 293 294 295 297 300 301 302 303 308 313 317 323 327 326 326 329 328 324 321 324 324 329 341 348 351 351 354 351 349 351 353 352 349 348 345 337 330 323 312 297
242 241 240 240 242 244 244 242 243 245 244 243 242 241 239 236 233 230 228 231 236 234 237 244 246 248 251 252 253 253 255 261 261 254 251 251 255 257 256 258 259 260 262 265 268 271 272 274 276 279 283 286 288 289 290 291 292 292 294 295 296 299 302 303 306 313 317 321 325 327 326 327 329 327 322 318 320 322 329 340 347 352 353 355 354 354 358 1 1 358 355 354 348 339 329 313 291
238 238 238 240 242 243 245 244 243 244 245 244 241 239 238 237 235 236 235 236 240 236 236 244 246 248 251 252 252 252 256 259 258 254 254 253 255 260 260 259 261 264 265 267 269 271 272 275 278 281 283 286 288 289 290 290 291 292 293 294 296 298 301 304 309 314 318 323 325 327 327 327 328 326 320 317 317 320 326 335 343 351 353 354 355 356 360 3 7 7 4 2 357 349 338 320 293
235 236 235 235 236 237 239 243 245 244 244 245 242 239 238 238 238 239 239 241 244 241 241 244 247 249 250 253 252 252 254 253 253 255 253 254 260 263 265 263 263 265 267 268 270 272 274 276 279 281 283 286 287 289 289 290 291 292 292 293 296 299 301 305 309 313 318 323 325 326 326 326 327 324 321 318 317 319 323 331 337 345 350 351 352 351 352 355 359 4 7 8 6 359 349 333 306
234 236 237 236 235 236 237 237 241 243 242 243 243 241 240 239 240 241 239 244 247 245 245 246 247 249 250 250 247 249 251 250 250 255 256 260 267 267 270 268 262 264 268 269 271 273 275 277 279 281 283 286 288 290 291 292 293 294 293 294 297 300 303 306 309 312 318 323 324 325 325 326 326 324 322 321 319 320 322 327 332 339 344 346 346 345 344 346 348 351 357 2 5 4 359 347 327
233 235 237 238 239 240 240 237 238 239 240 242 244 242 242 240 241 243 242 247 250 248 248 248 247 247 247 245 244 248 252 253 251 253 259 265 268 268 271 267 261 265 268 270 272 274 276 277 279 281 284 287 290 292 294 295 296 297 295 295 298 302 304 307 309 312 317 322 323 324 324 325 325 324 323 322 321 321 322 325 329 335 339 341 342 339 338 339 341 342 345 349 355 359 0 356 345
232 233 234 235 237 240 241 241 239 238 238 242 245 243 243 241 240 246 246 248 250 248 247 248 247 245 245 242 244 250 252 251 249 251 257 262 263 264 267 264 263 267 268 271 273 274 276 278 279 281 284 287 291 294 295 297 298 299 298 298 300 303 306 307 309 312 316 320 322 323 324 326 326 325 323 322 322 322 322 324 328 333 336 337 338 335 332 332 334 335 337 339 343 348 352 354 352
233 231 231 231 230 233 240 243 242 241 239 240 245 244 244 243 240 245 246 246 248 246 244 243 244 245 244 240 241 247 249 249 248 249 252 255 258 261 264 266 269 271 271 272 272 274 276 277 279 281 284 288 292 294 295 296 299 300 299 299 300 303 306 307 309 311 314 318 320 321 324 327 326 324 323 323 323 322 323 325 328 332 333 333 333 332 327 325 326 327 329 331 333 337 341 344 347
233 231 229 229 228 227 233 239 241 241 240 240 245 246 246 246 242 244 246 245 245 243 242 241 243 245 241 237 236 238 244 250 250 250 252 255 258 263 266 268 270 271 271 271 270 272 274 276 278 281 285 289 292 293 294 296 297 298 298 299 300 302 305 307 309 309 311 315 318 320 323 326 326 325 325 324 324 323 324 325 327 328 328 327 326 326 324 319 316 318 320 322 323 327 330 333 336
230 232 230 228 228 226 227 233 236 238 239 239 244 247 247 247 243 244 247 247 245 244 244 242 243 243 239 236 234 235 240 247 251 252 255 258 261 265 266 267 268 268 269 268 267 269 271 274 277 281 285 288 291 292 294 295 296 297 297 297 298 301 304 307 308 308 309 313 317 320 322 323 324 325 325 325 324 323 323 324 324 324 324 323 322 320 319 315 310 309 311 312 313 314 317 320 323
229 229 230 228 227 227 227 230 233 236 237 237 241 244 244 247 246 246 249 249 243 241 242 240 241 242 239 236 233 234 238 241 247 251 254 259 262 263 265 267 268 265 266 266 264 265 268 272 276 280 284 287 290 292 293 294 295 296 296 295 297 299 303 305 307 306 307 312 316 319 320 321 321 321 321 322 322 321 321 321 322 323 322 322 321 318 317 313 307 303 302 304 305 305 305 305 306
231 229 229 229 228 228 228 231 233 235 236 237 239 240 241 245 249 251 252 247 238 238 242 241 241 243 241 238 235 235 236 238 244 249 252 257 262 264 264 266 269 267 265 265 262 263 265 269 275 279 283 288 291 292 293 293 295 296 295 293 295 298 301 304 305 305 307 311 315 318 319 320 320 319 320 321 322 321 321 321 322 322 322 321 320 319 318 314 307 300 297 297 299 299 299 298 297
233 233 231 228 227 230 230 231 233 236 238 238 239 239 241 243 245 248 248 244 237 235 240 241 241 242 242 240 239 239 239 241 245 250 253 256 262 264 264 267 271 269 264 263 262 262 264 268 274 279 285 290 292 292 293 294 296 296 294 293 293 296 299 301 303 304 306 310 314 316 318 319 321 321 321 322 323 323 322 323 324 323 323 322 321 322 319 315 309 301 296 294 294 295 295 295 294
233 235 235 229 225 229 231 231 233 236 239 239 238 239 241 240 240 241 241 243 241 236 239 241 240 241 243 243 242 242 243 245 248 252 254 256 262 263 265 269 272 270 265 262 262 262 264 268 273 278 286 292 293 292 292 294 296 296 294 292 292 295 297 299 301 302 305 309 312 314 315 317 319 320 321 323 324 323 323 324 326 326 324 322 322 323 319 314 310 304 298 294 292 291 292 292 291
233 234 236 233 226 226 229 230 232 235 238 240 238 237 238 237 236 237 238 243 244 241 241 240 240 241 243 245 244 244 245 245 247 249 251 254 261 264 266 269 271 269 264 260 262 264 266 269 272 275 284 292 294 292 291 294 296 296 294 291 291 293 295 297 299 301 304 307 310 313 314 315 317 319 321 323 324 324 325 326 326 327 325 321 320 321 317 311 308 304 300 295 292 289 288 289 288
233 234 234 234 230 227 228 230 231 234 235 238 238 237 239 238 237 237 237 241 245 245 242 239 240 242 241 244 245 244 246 246 247 249 251 254 260 265 267 267 268 266 263 261 262 265 267 269 271 274 280 288 293 292 290 293 295 296 294 291 291 292 293 295 298 301 303 306 309 311 313 315 316 318 321 324 325 325 326 325 325 326 324 318 317 318 315 310 306 303 300 297 294 291 290 288 287
232 233 233 233 234 232 231 230 231 233 234 236 237 237 239 240 240 240 239 241 244 246 244 240 240 241 241 243 245 245 246 247 249 251 252 255 259 263 263 262 265 264 263 264 264 266 267 270 274 276 278 283 290 292 290 293 295 296 295 292 291 291 292 294 297 300 302 304 307 310 312 314 316 317 320 323 324 324 325 325 324 324 322 319 318 319 316 311 307 304 302 300 297 295 293 291 290
232 233 233 233 235 235 234 233 232 232 232 235 236 237 238 241 243 241 241 241 242 245 245 241 240 241 242 243 245 245 246 248 250 252 253 253 254 256 258 259 264 265 263 265 266 266 268 271 277 280 280 280 287 290 289 292 295 296 295 293 292 292 292 293 296 299 301 303 306 309 311 314 316 317 319 322 323 323 324 324 323 322 320 319 319 318 316 312 308 306 306 305 301 299 297 295 295
232 233 233 233 233 235 235 235 234 232 232 234 235 235 236 240 244 242 241 241 241 243 246 243 240 241 242 243 244 245 246 247 249 251 251 250 249 253 257 260 267 268 264 266 266 267 271 276 280 282 281 281 285 288 288 292 295 295 295 295 294 293 292 293 296 299 299 301 304 308 310 313 315 317 319 321 322 322 322 322 321 321 318 316 316 316 317 314 310 308 309 306 303 302 300 299 301
233 232 232 232 233 234 234 234 235 233 233 234 234 235 236 238 242 243 241 242 242 243 245 245 241 241 242 242 243 243 242 244 247 248 247 248 250 255 259 263 267 267 265 266 267 269 274 277 281 282 282 282 285 286 287 291 293 294 295 295 295 294 293 294 296 298 298 300 303 306 309 312 314 316 319 320 321 320 321 322 321 319 317 316 316 317 319 315 310 308 308 306 303 303 301 302 303
234 233 231 231 233 233 233 234 234 234 233 234 234 235 237 236 238 241 241 241 242 243 245 246 242 240 242 242 242 241 242 244 247 248 247 248 254 259 262 266 266 264 264 266 267 270 274 277 279 280 282 284 284 284 287 291 292 292 294 295 295 293 293 294 295 296 296 298 301 304 308 311 313 316 318 319 319 319 320 322 321 317 317 319 318 318 318 313 309 304 304 307 305 305 303 304 304
234 232 230 230 232 232 232 233 234 234 234 234 233 234 236 236 236 238 240 240 240 241 245 247 244 240 241 243 242 242 243 246 248 249 249 252 257 260 263 266 264 261 263 265 266 269 272 276 278 278 281 284 284 283 287 290 290 290 292 293 294 292 293 293 294 294 294 297 299 303 307 310 313 315 317 319 318 319 321 323 322 317 315 318 319 320 317 310 304 301 302 307 307 307 306 305 305
233 231 230 230 231 232 232 232 233 233 235 235 233 234 236 236 236 237 238 239 240 239 240 246 246 241 240 242 242 242 243 245 248 249 251 254 258 260 262 264 261 259 261 263 266 268 270 273 279 279 280 283 284 283 286 288 288 289 291 292 292 292 292 292 292 292 293 296 299 303 306 309 313 313 318 320 316 319 322 322 322 318 313 317 323 324 318 310 304 301 301 307 311 310 307 307 306
232 230 228 230 230 231 232 233 233 233 234 235 234 234 235 235 236 236 235 236 239 239 237 241 247 244 241 242 243 244 244 245 248 250 252 255 257 259 261 262 260 258 258 262 264 266 268 271 278 280 279 283 284 284 285 287 287 288 290 290 291 290 290 291 291 292 293 295 299 303 305 308 311 311 317 319 313 314 319 322 323 321 316 317 324 326 320 312 308 304 301 308 316 315 310 308 307
232 229 228 229 230 231 232 233 234 233 234 236 235 235 235 234 235 236 234 235 237 239 238 239 245 246 244 243 244 245 247 248 249 251 252 254 256 258 260 261 260 258 257 261 263 265 268 270 276 280 279 283 285 285 286 287 287 287 288 288 288 288 289 290 290 291 293 295 298 301 303 306 308 308 311 312 308 304 309 317 319 317 317 319 323 325 320 310 308 306 299 307 317 317 313 309 307
232 230 229 229 230 231 232 233 234 234 235 236 236 236 235 234 235 235 235 235 236 239 240 240 243 246 246 245 246 247 247 247 249 250 252 254 256 258 260 260 260 258 257 260 263 265 267 269 275 279 280 283 285 286 287 288 287 287 287 287 286 286 287 288 289 290 291 294 296 298 301 304 306 305 306 308 305 300 303 311 314 312 311 317 320 320 317 306 301 299 295 305 314 316 314 308 305
232 231 230 229 229 230 231 232 233 234 235 236 236 236 236 234 234 234 234 236 237 238 239 240 242 246 247 245 245 247 246 246 248 250 252 255 258 260 260 261 260 258 257 260 263 266 268 270 273 279 281 282 285 286 287 287 286 286 286 285 286 286 287 287 288 289 291 293 294 297 300 302 304 304 305 307 305 301 304 308 313 313 304 307 312 313 312 301 292 292 292 303 312 314 312 307 303
231 230 230 230 229 229 229 231 233 234 235 236 237 237 237 235 234 234 236 236 237 237 238 239 241 244 246 246 245 247 247 246 247 249 251 253 257 260 261 261 260 259 258 260 263 267 270 270 272 279 282 282 283 285 286 286 285 286 285 286 285 285 286 287 288 289 290 292 293 296 299 301 303 302 303 303 301 300 303 305 308 312 308 307 307 304 308 303 290 288 292 303 310 310 309 305 301
231 230 229 230 230 229 230 230 232 234 235 237 238 238 237 237 235 235 238 238 237 238 238 239 241 242 245 246 245 247 247 246 246 247 249 251 255 258 260 261 261 260 260 260 264 268 271 271 272 278 282 281 282 284 285 285 284 285 285 286 285 285 287 287 288 289 290 291 293 296 297 300 301 301 301 300 300 300 300 303 306 313 315 314 311 296 292 293 281 284 294 303 307 306 304 302 299
231 230 230 229 230 230 230 231 232 234 235 236 238 239 238 238 236 236 239 240 238 238 239 240 242 242 242 243 244 246 248 247 246 246 247 250 253 256 258 260 262 262 261 262 266 268 271 273 273 278 281 279 280 282 283 283 283 285 285 285 286 286 287 287 288 288 289 290 292 295 296 299 300 298 299 300 302 299 297 301 307 315 318 317 314 293 272 271 275 286 297 301 302 301 300 298 297
231 231 230 229 230 230 231 232 233 234 235 236 239 239 239 240 238 237 240 240 239 238 238 240 242 242 242 241 241 244 247 247 247 246 246 248 251 253 256 258 261 262 262 263 266 268 271 273 274 278 279 279 279 280 281 282 283 284 284 284 285 287 288 287 287 287 288 290 293 295 296 298 297 297 300 302 301 296 297 301 308 315 317 315 312 297 280 278 284 293 297 299 299 298 297 295 294
232 231 231 230 230 230 231 233 234 234 235 236 239 240 239 240 238 238 240 241 240 238 239 241 242 242 242 241 241 243 245 247 248 248 247 248 249 252 254 257 260 261 263 264 266 268 271 274 277 279 279 278 278 279 280 281 281 282 283 284 286 287 288 287 287 288 290 292 293 293 294 295 295 297 302 302 297 294 297 300 306 314 314 313 311 302 294 292 293 296 297 297 297 295 294 293 292
231 231 231 231 231 230 231 234 235 236 237 237 239 238 237 238 238 237 239 240 240 239 239 241 241 242 242 242 241 242 245 247 248 248 248 249 250 252 254 256 258 260 262 264 266 269 272 276 279 280 279 278 278 278 279 280 280 281 282 284 286 288 288 288 288 289 290 291 291 291 292 293 293 296 297 295 293 293 296 298 303 309 310 309 308 304 301 300 298 298 298 297 296 294 293 292 291
230 231 232 232 232 231 232 235 235 236 237 238 238 236 235 236 236 237 237 239 240 238 238 240 241 241 242 243 243 242 244 247 247 247 248 250 251 253 255 256 257 260 262 265 267 271 273 277 280 279 278 278 278 278 278 279 280 281 283 285 286 286 286 287 287 288 288 289 290 291 292 292 292 293 291 289 290 289 290 292 297 304 307 306 305 304 303 303 302 301 299 297 295 294 293 292 291
233 234 235 235 233 232 234 236 234 234 236 237 237 233 233 235 236 236 237 238 239 238 237 239 240 241 242 243 244 244 245 247 248 247 249 250 253 255 257 258 259 261 264 266 269 272 274 277 279 276 275 277 278 278 279 280 281 281 282 283 283 285 285 287 288 288 289 289 289 290 290 291 291 292 291 290 290 288 288 291 296 301 304 305 306 307 306 306 304 302 300 297 295 293 292 292 292
234 235 236 235 232 230 232 233 231 231 233 235 236 232 231 235 236 236 237 238 239 239 237 239 241 242 244 244 244 245 245 246 247 247 248 250 252 255 257 259 262 264 266 268 269 271 273 275 275 272 273 276 278 278 279 280 281 281 280 280 282 284 285 287 289 289 289 289 290 289 287 287 289 290 291 291 292 293 294 296 298 301 303 306 308 309 309 308 306 303 299 296 294 293 293 294 295
232 232 233 233 229 226 229 230 228 230 234 235 235 232 232 234 235 235 236 237 239 240 238 239 242 241 242 244 243 244 245 246 247 248 248 249 250 252 255 259 263 265 267 268 269 269 271 271 270 270 272 276 277 277 278 279 279 278 279 280 282 283 283 285 286 287 287 290 292 291 287 287 289 290 288 288 289 292 294 296 297 300 303 306 309 310 310 308 305 301 297 294 293 293 295 296 296
230 229 230 231 228 225 229 230 228 231 235 235 233 232 232 234 235 235 236 236 239 241 239 238 242 242 242 243 243 243 245 246 248 250 250 250 249 250 254 257 260 262 267 269 268 267 266 267 267 268 271 274 274 275 277 278 278 278 279 280 282 282 282 282 283 284 286 289 291 290 287 287 289 289 287 286 288 290 292 294 296 299 304 307 310 311 310 307 304 299 295 293 292 293 295 295 295
230 229 229 230 229 226 228 230 228 231 235 235 233 231 232 234 235 235 235 235 238 241 240 238 240 242 242 243 242 242 244 245 247 249 252 252 251 250 253 254 254 257 263 267 266 265 265 265 265 267 270 273 274 275 276 278 278 278 278 279 280 280 279 279 280 282 284 286 285 283 283 283 285 288 289 289 291 293 294 296 298 302 306 309 312 312 310 306 302 297 294 293 292 293 293 294 295
229 228 228 229 228 227 228 229 229 232 236 237 234 232 231 233 234 234 234 235 237 240 240 238 238 240 242 243 242 242 244 247 246 247 250 253 253 252 252 253 253 253 257 261 263 265 265 265 265 267 270 272 274 274 274 274 275 275 277 278 279 279 277 276 277 279 281 281 280 280 281 283 285 288 290 291 292 294 296 298 301 306 309 311 313 311 308 304 300 296 293 292 292 292 294 296 297
228 228 228 228 228 228 228 230 231 232 235 236 235 233 231 231 233 234 234 235 235 237 239 238 238 239 241 243 244 243 244 247 248 247 247 249 250 251 251 252 254 253 253 257 261 264 265 265 265 267 270 272 273 274 272 270 270 271 274 276 276 275 273 272 274 276 278 279 279 280 282 284 286 288 289 291 293 295 297 299 303 308 311 312 312 309 306 302 298 295 293 292 292 293 294 296 298
227 228 229 229 229 228 228 229 231 232 233 235 235 234 232 232 234 235 235 235 234 235 237 238 237 239 241 244 246 245 242 244 248 248 246 246 248 249 249 250 251 252 252 255 259 263 264 264 265 268 271 273 272 272 271 270 269 270 271 273 275 274 274 275 276 277 278 278 279 280 282 284 286 287 289 291 294 295 296 299 305 309 311 312 311 307 303 300 297 295 294 293 294 294 295 296 298
227 228 229 229 229 229 228 229 231 233 234 235 235 236 235 233 233 234 235 235 234 235 237 238 237 239 241 244 246 246 243 241 245 247 246 246 248 249 250 249 249 249 252 254 257 261 263 264 266 269 271 271 270 269 269 269 269 270 270 272 275 277 278 280 280 278 278 279 280 281 282 284 286 287 290 294 296 296 297 301 307 310 311 311 308 304 301 298 296 295 294 294 294 295 296 297 298
227 227 228 229 229 229 229 229 231 233 234 235 235 236 235 233 233 234 235 237 236 235 237 238 237 239 242 244 245 246 245 241 242 245 245 246 248 249 249 249 248 248 251 254 256 259 262 264 266 268 268 268 268 268 268 269 270 270 270 272 274 276 278 279 280 280 280 281 284 285 285 285 287 290 293 297 297 297 299 304 308 310 311 309 306 303 300 297 295 294 294 294 294 295 297 298 300
227 226 227 228 229 230 230 230 231 232 233 234 233 236 236 233 234 235 235 238 239 236 237 239 238 237 240 244 244 244 244 241 240 242 243 245 248 249 248 249 250 251 253 255 257 259 261 263 265 266 266 266 266 267 268 270 271 271 272 273 275 277 277 279 280 281 283 284 286 287 287 287 289 291 294 296 296 297 301 306 309 310 309 307 304 302 299 296 295 294 294 295 296 298 299 301 302
226 226 226 227 228 229 230 230 231 231 233 233 233 234 235 233 234 236 235 238 240 239 238 239 239 237 236 241 243 243 243 242 241 242 243 244 247 248 249 251 253 255 256 256 257 258 260 262 264 266 266 266 267 267 269 271 271 272 273 275 276 277 278 280 281 281 283 285 285 286 287 289 291 293 295 296 295 297 302 306 308 308 306 304 303 300 298 296 295 295 296 297 299 301 301 302 302
225 225 225 226 227 228 228 229 230 231 232 233 233 234 236 234 233 236 236 237 240 241 240 238 238 239 237 239 242 244 244 243 242 242 243 244 247 249 251 253 254 255 255 255 256 258 260 261 263 265 266 267 268 269 270 271 271 272 273 275 276 277 279 280 281 282 284 285 286 287 289 291 292 294 295 294 295 298 303 305 306 306 304 303 302 299 298 296 296 297 299 300 301 302 302 302 302
224 225 225 225 226 227 227 228 228 229 231 232 232 233 235 233 231 234 237 238 239 239 240 239 237 238 239 239 240 242 243 243 242 242 244 245 247 250 252 253 253 253 254 255 257 258 260 261 262 263 265 266 268 269 270 270 271 272 274 275 276 278 279 281 282 283 285 286 287 289 290 291 292 294 293 292 295 299 302 304 305 303 302 302 300 299 298 297 298 300 301 302 302 302 302 303 303
222 223 224 224 226 226 227 228 228 230 231 232 232 233 235 233 230 233 236 238 238 237 239 239 237 237 239 241 241 241 242 243 242 243 244 246 249 252 253 253 253 253 255 256 257 259 260 261 262 263 264 266 267 268 269 269 270 272 273 275 276 278 280 281 282 284 285 287 288 289 290 291 292 293 293 291 295 299 302 303 303 302 301 300 299 299 298 298 300 301 302 303 303 303 303 304 304
221 222 223 224 226 227 227 228 229 230 232 233 234 234 235 233 230 230 235 239 240 239 238 239 238 238 239 241 241 240 241 243 243 244 246 247 249 251 253 253 253 254 256 257 258 259 260 260 261 263 264 265 265 266 267 268 270 272 273 275 277 279 280 281 282 283 285 286 288 289 290 290 291 293 293 292 295 299 301 301 301 300 300 299 299 299 298 300 300 301 302 303 303 304 304 304 305
221 221 222 223 226 227 228 228 230 231 232 234 234 235 234 231 229 230 233 238 241 240 240 238 239 240 240 242 243 242 242 244 244 245 246 246 246 247 250 253 254 254 255 256 257 259 259 260 261 262 262 263 263 264 266 268 270 272 273 275 277 278 279 281 282 283 285 286 287 288 289 290 291 292 292 293 295 298 299 299 299 299 299 299 299 299 299 299 300 301 302 303 304 304 305 306 307
220 221 222 223 225 227 228 228 230 231 232 233 234 235 234 229 229 231 231 235 240 241 242 239 238 242 242 242 245 244 243 244 244 244 244 244 244 245 248 252 253 254 255 255 256 257 258 259 259 260 261 262 263 265 267 269 270 271 273 275 277 278 279 281 282 283 284 285 286 287 288 290 291 291 292 293 295 296 297 297 297 298 298 298 298 298 299 299 299 301 303 303 304 304 306 307 308
219 220 221 223 225 227 227 227 227 229 229 230 231 233 233 227 228 231 230 234 240 241 243 240 238 243 244 244 246 246 244 243 242 243 243 243 246 246 247 249 252 254 255 254 254 256 258 258 258 259 261 263 265 266 268 269 270 272 273 275 276 278 279 281 282 283 284 286 287 288 289 290 290 291 292 294 295 295 295 296 296 297 297 297 297 298 298 298 300 302 302 303 304 306 307 307 309
218 219 220 222 223 226 228 226 226 227 228 228 229 231 231 226 227 231 231 235 240 242 243 241 239 244 246 246 247 247 246 243 241 241 242 243 245 246 246 248 251 252 252 251 252 255 257 258 260 262 263 265 265 267 268 269 271 272 274 275 277 278 280 281 282 283 284 286 287 288 288 290 291 291 292 293 294 294 295 295 296 296 296 296 296 297 298 300 301 302 303 304 305 306 307 308 310
217 218 219 221 222 224 226 226 225 227 228 228 229 230 229 226 226 229 231 235 238 241 243 242 242 245 246 247 248 248 247 245 243 242 242 244 245 246 246 247 249 250 251 251 252 254 256 258 262 264 264 265 266 267 269 270 272 274 275 276 278 279 280 281 282 283 284 285 287 287 288 289 290 291 292 292 293 293 294 295 295 295 295 295 296 297 299 301 302 302 303 304 306 307 308 309 310
216 216 218 220 222 224 226 226 224 225 227 227 228 228 227 226 226 228 232 234 236 240 242 241 242 244 244 244 246 248 248 246 243 240 240 242 244 244 244 244 247 251 254 254 255 256 258 261 263 263 263 265 267 269 271 272 273 275 276 277 278 279 280 281 282 283 284 285 286 287 287 289 290 291 291 292 293 293 294 294 294 294 294 295 296 298 300 301 302 303 303 305 306 308 309 309 311
216 216 216 218 220 222 224 225 224 225 226 226 226 226 225 225 226 228 232 234 235 239 242 241 241 243 244 245 247 250 249 246 244 243 241 241 243 245 245 246 248 252 255 257 259 261 262 262 262 262 264 267 269 270 271 272 274 275 276 278 279 280 281 281 282 283 284 284 285 286 287 288 289 290 291 291 292 292 293 293 292 293 294 295 297 299 300 301 301 302 303 305 307 308 309 310 312
215 215 216 217 220 221 222 223 222 223 225 226 225 225 223 223 225 228 231 233 234 237 241 242 241 242 244 247 248 249 249 246 244 245 244 244 246 249 250 250 251 251 254 258 260 262 263 263 263 264 266 268 269 271 272 273 274 275 277 278 279 279 280 281 281 282 283 283 284 285 287 288 288 289 290 290 291 291 291 291 292 293 294 296 297 298 299 300 301 303 304 306 307 308 309 311 314